Regional Weather Roundup
Issued by NWS Goodland, KS

Home | Current Version | Previous Version | Graphics & Text | Print | Product List | Glossary On
Versions: 1 2 3 4 5 6 7 8 9 10 11 12 13 14 15 16 17 18 19 20 21 22 23 24 25 26 27 28 29 30 31 32 33 34 35 36 37 38 39 40 41 42 43 44 45 46 47 48 49 50
000
ASUS43 KGLD 130559
RWRGLD

GOODLAND FORECAST AREA HOURLY WEATHER ROUNDUP
NATIONAL WEATHER SERVICE GOODLAND KS
1200 AM MDT SUN JUL 13 2014

...OFFICIAL OBSERVATIONS...

CITY           SKY/WX    TMP DP  RH WIND       PRES   REMARKS
GOODLAND KS    CLOUDY    70  66  87 E3        30.22R
HILL CITY KS   PTCLDY    74  67  78 N7        30.10R
IMPERIAL NEB   MOCLDY    68  64  87 N6        30.19R
MCCOOK NEB     PTCLDY    70  66  87 CALM      30.14R
AKRON CO       MOCLDY    69  62  78 CALM      30.30R
BURLINGTON CO  CLOUDY    69  63  81 CALM      30.26R
LIMON CO       CLOUDY    64  61  90 N8        30.36R
$$

...UNOFFICIAL OBSERVATIONS...

CITY           SKY/WX    TMP DP  RH WIND       PRES   REMARKS
COLBY KS       CLEAR     70  68  94 N5        30.19R
GOVE KS          N/A     75  32  20 CALM        N/A
LENORA KS        N/A     70  32  24 MISG        N/A
NORTON KS      CLEAR     68  63  83 N7        30.10S
KIT CARSON CO    N/A     70  60  70 N14G25      N/A
YUMA CO          N/A     68  64  85 CALM        N/A
$$



USA.gov is the U.S. government's official web portal to all federal, state and local government web resources and services.